Location: Newark
(12.4436°N, 0.6167°W)
Time: 07:21:15
(UTC+00:00)

Vanguard 1 - Pass Details

Date: 17 December 2019
Orbit: 650 x 3833 km, 34.2° (Epoch: 28 January)

Event Time Altitude Azimuth Distance (km) Brightness Sun altitude
Rises 02:51:11 0° 266° (W) 6,688 - -47.6°
Reaches altitude 10° 02:55:28 10° 272° (W) 6,018 - -46.6°
Exits shadow 03:15:15 47° 342° (NNW) 4,535 13.0 -42.1°
Maximum altitude 03:15:16 47° 342° (NNW) 4,535 13.0 -42.1°
Drops below altitude 10° 03:36:55 10° 52° (NE) 6,448 14.5 -37.2°
Sets 03:41:49 0° 59° (ENE) 7,165 14.9 -36.0°
